This is the latest recevied weather packets stored in our database for station/object N3WMC. If no packets are shown the sender has not sent any weather packets the latest 10 day(s).
| Time | Temp. | Humidity | Pressure | Rain* | Wind** | Luminosity | Snow |
|---|---|---|---|---|---|---|---|
| 1778123402 | 8.89° C | 74% | 1014.2 hPa | 0 mm | - | 0 W/m² | - |
| 1778123099 | 8.89° C | 76% | 1014.5 hPa | 0 mm | - | 0 W/m² | - |
| 1778122796 | 8.89° C | 76% | 1014.4 hPa | 0 mm | - | 0 W/m² | - |
| 1778122493 | 9.44° C | 75% | 1014.2 hPa | 0 mm | - | 0 W/m² | - |
| 1778122191 | 9.44° C | 73% | 1014.2 hPa | 0 mm | - | 0 W/m² | - |
| 1778121888 | 9.44° C | 72% | 1014.2 hPa | 0 mm | - | 0 W/m² | - |
| 1778121584 | 9.44° C | 67% | 1014.2 hPa | 0 mm | - | 0 W/m² | - |
| 1778121281 | 10° C | 65% | 1014.1 hPa | 0 mm | - | 0 W/m² | - |
| 1778120979 | 10° C | 65% | 1013.9 hPa | 0 mm | - | 0 W/m² | - |
| 1778120676 | 9.44° C | 65% | 1014.2 hPa | 0 mm | - | 0 W/m² | - |
| 1778120370 | 10° C | 65% | 1014.1 hPa | 0 mm | - | 0 W/m² | - |
| 1778120065 | 10° C | 65% | 1013.9 hPa | 0 mm | - | 0 W/m² | - |
| 1778119764 | 10° C | 64% | 1014 hPa | 0 mm | - | 0 W/m² | - |
| 1778119460 | 10° C | 63% | 1013.7 hPa | 0 mm | - | 0 W/m² | - |
| 1778119157 | 10° C | 63% | 1013.9 hPa | 0 mm | - | 0 W/m² | - |
| 1778118856 | 10° C | 62% | 1013.7 hPa | 0 mm | - | 0 W/m² | - |
| 1778118552 | 10° C | 63% | 1013.4 hPa | 0 mm | - | 0 W/m² | - |
| 1778118248 | 10° C | 63% | 1013.6 hPa | 0 mm | - | 0 W/m² | - |
| 1778117945 | 10° C | 62% | 1013.6 hPa | 0 mm | - | 0 W/m² | - |
| 1778117637 | 10° C | 62% | 1013.1 hPa | 0 mm | - | 0 W/m² | - |
| 1778117334 | 10.56° C | 61% | 1013.5 hPa | 0 mm | - | 0 W/m² | - |
| 1778117029 | 10.56° C | 61% | 1013.4 hPa | 0 mm | - | 0 W/m² | - |
| 1778116727 | 10.56° C | 61% | 1013.5 hPa | 0 mm | - | 0 W/m² | - |
| 1778116424 | 10.56° C | 61% | 1013.3 hPa | 0 mm | - | 0 W/m² | - |
| 1778116118 | 10.56° C | 60% | 1013.5 hPa | 0 mm | - | 0 W/m² | - |
* Rain latest hour (hover to see other rain measurements)
** Current wind speed in m/s (hover to see current wind gust speed)